When you browse on this site, cookies collect data to enhance your experience and personalize the content and advertising you see.
Visit our Privacy Policy to learn more. By continuing to use the site, you agree to this use of cookies and data.
  • en Suisse
  • Liste des pays
  • À 7 jours
  • Température de l'eau
  • Carte satellitaire
  • Carte météo
  • Widgets météo
  • user-avatar
    Se connecter

    Météo par heure à Bruhl

    Ce jour, 19 Juillet, Vendredi

    Heure Température Précipitation Vent Pression Humidité
    00:00 +20°C° 0 mm 1 m/s 753 mmHg 85%
    01:00 +19°C° 0.4 mm 1 m/s 753 mmHg 86%
    02:00 +19°C° 0.4 mm 1 m/s 753 mmHg 88%
    03:00 +19°C° 0.4 mm 1 m/s 753 mmHg 89%
    04:00 +20°C° 0.1 mm 1 m/s 753 mmHg 87%
    05:00 +19°C° 0.1 mm 2 m/s 754 mmHg 84%
    06:00 +19°C° 0.1 mm 2 m/s 754 mmHg 82%
    07:00 +20°C° 0 mm 2 m/s 754 mmHg 73%
    08:00 +22°C° 0 mm 3 m/s 754 mmHg 64%
    09:00 +24°C° 0 mm 3 m/s 754 mmHg 55%
    10:00 +25°C° 0 mm 3 m/s 754 mmHg 51%
    11:00 +25°C° 0 mm 3 m/s 754 mmHg 46%
    12:00 +26°C° 0 mm 3 m/s 754 mmHg 42%
    13:00 +27°C° 0 mm 3 m/s 754 mmHg 41%
    14:00 +27°C° 0 mm 3 m/s 754 mmHg 41%
    15:00 +27°C° 0 mm 4 m/s 754 mmHg 41%
    16:00 +26°C° 0 mm 3 m/s 754 mmHg 45%
    17:00 +26°C° 0 mm 3 m/s 754 mmHg 49%
    18:00 +25°C° 0 mm 2 m/s 754 mmHg 53%
    19:00 +24°C° 0 mm 2 m/s 754 mmHg 57%
    20:00 +21°C° 0 mm 2 m/s 754 mmHg 61%
    21:00 +20°C° 0 mm 2 m/s 754 mmHg 65%
    22:00 +20°C° 0 mm 2 m/s 754 mmHg 67%
    23:00 +19°C° 0 mm 2 m/s 754 mmHg 70%

    Demain, 20 Juillet, Samedi

    Heure Température Précipitation Vent Pression Humidité
    00:00 +19°C° 0 mm 2 m/s 754 mmHg 72%
    01:00 +18°C° 0 mm 2 m/s 754 mmHg 74%
    02:00 +18°C° 0 mm 2 m/s 754 mmHg 75%
    03:00 +18°C° 0 mm 2 m/s 753 mmHg 77%
    04:00 +19°C° 0 mm 2 m/s 753 mmHg 75%
    05:00 +20°C° 0 mm 3 m/s 753 mmHg 73%
    06:00 +21°C° 0 mm 3 m/s 753 mmHg 71%
    07:00 +22°C° 0 mm 3 m/s 753 mmHg 65%
    08:00 +25°C° 0 mm 4 m/s 753 mmHg 59%
    09:00 +27°C° 0 mm 4 m/s 753 mmHg 53%
    10:00 +27°C° 0.7 mm 4 m/s 753 mmHg 56%
    11:00 +27°C° 0.7 mm 4 m/s 753 mmHg 59%
    12:00 +27°C° 0.7 mm 3 m/s 752 mmHg 62%
    13:00 +27°C° 0.8 mm 4 m/s 752 mmHg 61%
    14:00 +28°C° 0.8 mm 4 m/s 752 mmHg 59%
    15:00 +29°C° 0.8 mm 4 m/s 752 mmHg 58%
    16:00 +27°C° 0.8 mm 4 m/s 752 mmHg 62%
    17:00 +26°C° 0.8 mm 4 m/s 752 mmHg 65%
    18:00 +25°C° 0.8 mm 4 m/s 753 mmHg 69%
    19:00 +24°C° 0.1 mm 3 m/s 753 mmHg 72%
    20:00 +22°C° 0.1 mm 3 m/s 753 mmHg 75%
    21:00 +21°C° 0.1 mm 3 m/s 754 mmHg 77%
    22:00 +20°C° 0 mm 2 m/s 754 mmHg 80%
    23:00 +20°C° 0 mm 2 m/s 754 mmHg 83%

    Après-demain, 21 Juillet, Dimanche

    Heure Température Précipitation Vent Pression Humidité
    00:00 +19°C° 0 mm 2 m/s 755 mmHg 86%
    01:00 +19°C° 0 mm 2 m/s 755 mmHg 87%
    02:00 +18°C° 0 mm 2 m/s 755 mmHg 88%
    03:00 +18°C° 0 mm 2 m/s 755 mmHg 89%
    04:00 +18°C° 0 mm 2 m/s 756 mmHg 86%
    05:00 +19°C° 0 mm 2 m/s 756 mmHg 82%
    06:00 +19°C° 0 mm 3 m/s 757 mmHg 78%
    07:00 +20°C° 0 mm 3 m/s 757 mmHg 73%
    08:00 +22°C° 0 mm 3 m/s 758 mmHg 68%
    09:00 +24°C° 0 mm 3 m/s 758 mmHg 62%
    10:00 +25°C° 0.1 mm 4 m/s 758 mmHg 59%
    11:00 +26°C° 0.1 mm 4 m/s 758 mmHg 55%
    12:00 +27°C° 0.1 mm 4 m/s 759 mmHg 52%
    13:00 +27°C° 0.1 mm 4 m/s 759 mmHg 51%
    14:00 +27°C° 0.1 mm 4 m/s 759 mmHg 51%
    15:00 +27°C° 0.1 mm 4 m/s 759 mmHg 51%
    16:00 +27°C° 0 mm 3 m/s 759 mmHg 55%
    17:00 +26°C° 0 mm 3 m/s 759 mmHg 58%
    18:00 +25°C° 0 mm 2 m/s 759 mmHg 62%
    19:00 +24°C° 0 mm 2 m/s 760 mmHg 67%
    20:00 +22°C° 0 mm 1 m/s 760 mmHg 72%
    21:00 +21°C° 0 mm 1 m/s 761 mmHg 77%
    22:00 +20°C° 0 mm 1 m/s 761 mmHg 79%
    23:00 +20°C° 0 mm 1 m/s 761 mmHg 81%

    22 Juillet, Lundi

    Heure Température Précipitation Vent Pression Humidité
    00:00 +17°C° 0 mm 0 m/s 761 mmHg 83%
    01:00 +17°C° 0 mm 0 m/s 761 mmHg 84%
    02:00 +17°C° 0 mm 0 m/s 761 mmHg 85%
    03:00 +18°C° 0 mm 1 m/s 761 mmHg 85%
    04:00 +19°C° 0 mm 1 m/s 761 mmHg 83%
    05:00 +20°C° 0 mm 1 m/s 761 mmHg 80%
    06:00 +21°C° 0 mm 1 m/s 761 mmHg 78%
    07:00 +23°C° 0 mm 1 m/s 761 mmHg 70%
    08:00 +22°C° 0 mm 0 m/s 762 mmHg 63%
    09:00 +24°C° 0 mm 0 m/s 762 mmHg 56%
    10:00 +27°C° 0 mm 1 m/s 762 mmHg 51%
    11:00 +29°C° 0 mm 1 m/s 761 mmHg 46%
    12:00 +30°C° 0 mm 1 m/s 761 mmHg 41%
    13:00 +30°C° 0 mm 1 m/s 761 mmHg 40%
    14:00 +30°C° 0 mm 1 m/s 761 mmHg 39%
    15:00 +30°C° 0 mm 1 m/s 761 mmHg 37%
    16:00 +30°C° 0 mm 1 m/s 761 mmHg 41%
    17:00 +29°C° 0 mm 1 m/s 761 mmHg 45%
    18:00 +28°C° 0 mm 1 m/s 761 mmHg 49%
    19:00 +26°C° 0 mm 1 m/s 761 mmHg 52%
    20:00 +25°C° 0 mm 1 m/s 761 mmHg 56%
    21:00 +21°C° 0 mm 0 m/s 761 mmHg 59%
    22:00 +20°C° 0 mm 0 m/s 761 mmHg 61%
    23:00 +22°C° 0 mm 1 m/s 761 mmHg 63%

    23 Juillet, Mardi

    Heure Température Précipitation Vent Pression Humidité
    00:00 +21°C° 0 mm 1 m/s 761 mmHg 65%
    01:00 +21°C° 0 mm 1 m/s 761 mmHg 67%
    02:00 +21°C° 0 mm 1 m/s 761 mmHg 68%
    03:00 +20°C° 0 mm 1 m/s 760 mmHg 70%
    04:00 +21°C° 0 mm 1 m/s 760 mmHg 69%
    05:00 +22°C° 0 mm 1 m/s 760 mmHg 67%
    06:00 +23°C° 0 mm 1 m/s 760 mmHg 66%
    07:00 +25°C° 0 mm 2 m/s 760 mmHg 60%
    08:00 +27°C° 0 mm 2 m/s 760 mmHg 54%
    09:00 +29°C° 0 mm 3 m/s 760 mmHg 48%
    10:00 +30°C° 0 mm 3 m/s 759 mmHg 44%
    11:00 +33°C° 0 mm 3 m/s 759 mmHg 40%
    12:00 +34°C° 0 mm 3 m/s 758 mmHg 36%
    13:00 +34°C° 0 mm 3 m/s 758 mmHg 34%
    14:00 +35°C° 0 mm 3 m/s 758 mmHg 33%
    15:00 +35°C° 0 mm 3 m/s 757 mmHg 32%
    16:00 +34°C° 0 mm 2 m/s 757 mmHg 36%
    17:00 +34°C° 0 mm 2 m/s 757 mmHg 40%
    18:00 +32°C° 0 mm 2 m/s 757 mmHg 45%
    19:00 +30°C° 0 mm 2 m/s 757 mmHg 48%
    20:00 +28°C° 0 mm 2 m/s 757 mmHg 52%
    21:00 +26°C° 0 mm 3 m/s 757 mmHg 55%
    22:00 +26°C° 0 mm 3 m/s 757 mmHg 58%
    23:00 +25°C° 0 mm 2 m/s 756 mmHg 61%

    24 Juillet, Mercredi

    Heure Température Précipitation Vent Pression Humidité
    00:00 +24°C° 0 mm 2 m/s 756 mmHg 64%
    01:00 +24°C° 0 mm 2 m/s 756 mmHg 65%
    02:00 +23°C° 0 mm 2 m/s 756 mmHg 67%
    03:00 +23°C° 0 mm 2 m/s 756 mmHg 69%
    04:00 +24°C° 0 mm 3 m/s 756 mmHg 67%
    05:00 +24°C° 0 mm 3 m/s 756 mmHg 66%
    06:00 +25°C° 0 mm 3 m/s 756 mmHg 64%
    07:00 +27°C° 0 mm 3 m/s 756 mmHg 59%
    08:00 +30°C° 0 mm 3 m/s 756 mmHg 53%
    09:00 +33°C° 0 mm 3 m/s 756 mmHg 47%
    10:00 +35°C° 0 mm 2 m/s 756 mmHg 43%
    11:00 +36°C° 0 mm 2 m/s 756 mmHg 38%
    12:00 +37°C° 0 mm 1 m/s 756 mmHg 33%
    13:00 +39°C° 0 mm 1 m/s 755 mmHg 33%
    14:00 +39°C° 0 mm 1 m/s 755 mmHg 32%
    15:00 +40°C° 0 mm 1 m/s 755 mmHg 31%
    16:00 +37°C° 0 mm 1 m/s 755 mmHg 35%
    17:00 +36°C° 0 mm 1 m/s 755 mmHg 39%
    18:00 +35°C° 0 mm 1 m/s 755 mmHg 42%
    19:00 +34°C° 0.1 mm 2 m/s 755 mmHg 45%
    20:00 +31°C° 0.1 mm 2 m/s 755 mmHg 48%
    21:00 +29°C° 0.1 mm 2 m/s 756 mmHg 51%
    22:00 +28°C° 0 mm 2 m/s 756 mmHg 54%
    23:00 +27°C° 0 mm 2 m/s 756 mmHg 56%
    Voir plus